Location: Unspecified
(0.0000°N, 0.0000°E)
Time: 16:05:45
(UTC+00:00)

CAS-4B - Visible Passes

Search period start: 04 March 2024 00:00
Search period end: 14 March 2024 00:00
Orbit: 486 x 501 km, 43.0° (Epoch: 04 March)

Date Brightness Start Highest point End Pass type
(mag) Time Alt. Az. Time Alt. Az. Time Alt. Az.
04 Mar ? 18:47:28 10° SSW 18:50:53 31° SE 18:53:30 15° ENE visible
04 Mar ? 20:27:37 10° W 20:28:01 11° WNW 20:28:01 11° WNW visible
05 Mar ? 20:03:20 10° W 20:05:31 15° NW 20:05:43 15° NW visible
06 Mar ? 19:39:03 10° WNW 19:41:07 14° NW 19:43:13 10° N visible
07 Mar ? 05:46:16 10° NNW 05:49:49 36° NE 05:53:23 10° ESE visible
07 Mar ? 19:14:43 10° WNW 19:16:41 14° NW 19:18:40 10° NNW visible
08 Mar ? 05:21:47 10° NNW 05:25:21 37° NE 05:28:58 10° ESE visible
08 Mar ? 18:50:23 10° WNW 18:52:14 13° NW 18:54:05 10° NNW visible
09 Mar ? 04:58:11 16° NNW 05:00:52 38° NE 05:04:30 10° ESE visible
10 Mar ? 04:35:47 37° NNE 04:36:21 40° NE 04:40:00 10° ESE visible
11 Mar ? 04:13:21 27° E 04:13:21 27° E 04:15:28 10° ESE visible
12 Mar ? 03:50:50 10° ESE 03:50:50 10° ESE 03:50:54 10° ESE visible
12 Mar ? 05:25:20 11° WSW 05:26:17 12° SW 05:27:51 10° SSW visible
13 Mar ? 05:02:42 11° SSW 05:02:42 11° SSW 05:03:04 10° SSW visible
